Regional Weather Roundup
Issued by NWS

Home | Current Version | Previous Version | Text Only | Print | Product List | Glossary Off
Versions: 1 2 3 4 5 6 7 8 9 10 11 12 13 14 15 16 17 18 19 20 21 22 23 24 25 26 27 28 29 30 31 32 33 34 35 36 37 38 39 40 41 42 43 44 45 46 47 48 49 50

000
ASUS43 KLOT 202210
RWRIL

ILLINOIS REGIONAL WEATHER ROUNDUP
NATIONAL WEATHER SERVICE CHICAGO/ROMEOVILLE IL
500 PM CDT WED AUG 20 2014

NOTE: "FAIR" INDICATES FEW OR NO CLOUDS BELOW 12,000 FEET WITH NO
SIGNIFICANT WEATHER AND/OR OBSTRUCTIONS TO VISIBILITY.

* THESE STATIONS ARE NOT UNDER NWS QUALITY CONTROL. THEY ALSO MAY NOT
  REPORT WEATHER SUCH AS PRECIPITATION OR FOG.

ILZ001-002-007-009-015-016-024-202300-
NORTHWEST ILLINOIS

CITY           SKY/WX    TMP DP  RH WIND       PRES   REMARKS
MOLINE         CLOUDY    75  68  78 SW12      29.92R
STERLING*      MOSUNNY   81  70  69 SW7       29.90S HX  84
SAVANNA*       PTSUNNY   83  67  56 SW12G17   29.90R HX  86
$$

ILZ003-004-008-010-011-017-018-202300-
NORTH CENTRAL ILLINOIS

CITY           SKY/WX    TMP DP  RH WIND       PRES   REMARKS
ROCKFORD       PTSUNNY   85  66  53 S12       29.90R HX  87
FREEPORT*      MOSUNNY   83  69  63 SW12      29.92R HX  86
ROCHELLE*      PTSUNNY   82  66  58 SW13      29.90R HX  85
DE KALB*       PTSUNNY   81  67  62 SW10      29.90S HX  83
PERU*          PTSUNNY   80  70  70 SW16      29.92R HX  83
$$

ILZ005-006-012>014-019>023-202300-
NORTHEAST ILLINOIS

CITY           SKY/WX    TMP DP  RH WIND       PRES   REMARKS
CHICAGO-OHARE  PTSUNNY   85  63  47 W12       29.87R HX  86
CHICAGO-MIDWAY PTSUNNY   86  66  51 SW9       29.86S HX  88
AURORA         PTSUNNY   85  65  51 SW9       29.89R HX  86
LANSING*       MOSUNNY   84  64  52 SW10      29.88S HX  85
JOLIET*        PTSUNNY   83  65  54 SW7       29.89R HX  84
WAUKEGAN       MOSUNNY   84  65  52 VRB5      29.85S HX  86
DUPAGE AIRPORT MOSUNNY   84  66  54 SW9       29.88R HX  86
KANKAKEE*      MOSUNNY   82  72  71 W7        29.89F HX  86
WHEELING       MOSUNNY   86  64  47 W9        29.88R HX  87
MORRIS*        PTSUNNY   83  70  65 SW8       29.89S HX  87
ROMEOVILLE*    PTSUNNY   82  66  57 SW12      29.88R HX  84
NORTHERLY ISL    N/A     84  61  45 SW5         N/A  HX  84
$$

LMZ740>746-202300-
SOUTHERN LAKE MICHIGAN

STATION/POSITION SKY/WX   TEMP    WIND        PRES    VSBY  WAVE
                          AIR SEA DIR/SP/G                  HT/PER
                          (F)     (DEG/KT/KT) (MB)    (MI)  (FT/S)
SOUTHERN BUOY              69 69   90/  6/  8 1011.7S         0
WAUKEGAN HARBOR            84     300/  9/ 11   N/A
HARRISON CRIB              83     250/  9/ 12   N/A
BURNHAM HARBOR             85     240/  6/ 10   N/A
CALUMET HARBOR             84     190/  7/  9 1010.1F
BURNS HARBOR               83     250/ 13/ 16   N/A
MICHIGAN CITY              79     220/  3/  5   N/A
MICHIGAN CITY 6N           77 74  270/  4/  4   N/A           1/ 3
ST. JOSEPH                 77 71  110/  2/  2   N/A           0
$$

ILZ025>027-034>036-040-047-049-050-058-095>099-202300-
WEST-CENTRAL ILLINOIS

CITY           SKY/WX    TMP DP  RH WIND       PRES   REMARKS
QUINCY         PTSUNNY   84  74  71 S8        29.92F HX  91
GALESBURG*     CLOUDY    76  71  83 S5        29.92F
MACOMB*        PTSUNNY   80  72  76 SW10      29.94S HX  84
JACKSONVILLE*  MOSUNNY   83  74  74 S9        29.95S HX  89
PITTSFIELD*    PTSUNNY   86  75  71 SE6       29.94F HX  95
$$

ILZ028>032-037-038-041>044-048-051>054-059>061-202300-
CENTRAL ILLINOIS

CITY           SKY/WX    TMP DP  RH WIND       PRES   REMARKS
DECATUR        PTSUNNY   81  69  67 SW12      29.94F HX  84
PEORIA         CLOUDY    79  68  69 W6        29.95R HX  81
LACON*         RAIN      76  67  76 SW7       29.94R
LINCOLN*       PTSUNNY   82  69  64 SW3       29.90F HX  86
SPRINGFIELD    MOSUNNY   83  72  69 S12       29.94S HX  88
TAYLORVILLE    SUNNY     79  72  78 S6        29.95F HX  82
$$

ILZ033-039-045-046-055>057-062-063-202300-
EAST-CENTRAL ILLINOIS

CITY           SKY/WX    TMP DP  RH WIND       PRES   REMARKS
CHAMPAIGN      CLOUDY    79  70  74 SW13      29.94S HX  82
DANVILLE*      RAIN      78  70  76 SW10      29.90R HX  80
RANTOUL*       PTSUNNY   79  69  70 SW12      29.93F HX  82
MATTOON        PTSUNNY   77  70  79 SW7       29.95S
PARIS*         PTSUNNY   74  71  90 SW3       29.94F
$$

ILZ079-100>102-202300-
SOUTHWEST ILLINOIS

CITY           SKY/WX    TMP DP  RH WIND       PRES   REMARKS
ALTON          PTSUNNY   82  75  78 SE9       29.95F HX  89
BELLEVILLE     PTSUNNY   85  75  73 E7        29.94F HX  93
CAHOKIA*       PTSUNNY   86  74  67 SE8       29.93F HX  94
SPARTA*        CLOUDY    82  74  77 E6        29.96F HX  87
$$

ILZ064>066-069>071-074>076-080>082-084>086-088>090-092>094-202300-
SOUTH-CENTRAL ILLINOIS

CITY           SKY/WX    TMP DP  RH WIND       PRES   REMARKS
CARBONDALE     CLOUDY    82  74  76 NE3       29.95F HX  88
CAIRO*         MOSUNNY   93  76  57 SW3       29.94S HX 105
MARION         PTSUNNY   84  75  74 NE8       29.96F HX  92
MT. VERNON     CLOUDY    82  70  65 CALM      29.97S HX  86
CENTRALIA*     CLOUDY    89  66  46 S5        29.96F HX  92
SALEM*         CLOUDY    82  72  71 S3        29.97S HX  86
$$

ILZ067-068-072-073-078-083-087-091-202300-
SOUTHEAST ILLINOIS

CITY           SKY/WX    TMP DP  RH WIND       PRES   REMARKS
LAWRENCEVILLE  PTSUNNY   78  70  76 SW6       29.95R HX  80
FLORA*         PTSUNNY   80  67  65 CALM      29.97S HX  82
FAIRFIELD*     PTSUNNY   82  73  74 S3        29.96R HX  88
HARRISBURG*    PTSUNNY   83  71  68 E3        29.98S HX  87
ROBINSON*      PTSUNNY   82  73  75 SW6       29.94S HX  87
CARMI*         PTSUNNY   84  72  65 CALM      29.96S HX  89
$$

ABBREVIATIONS USED IN REMARKS
   TC - TEMPERATURE IN CELSIUS
  WCI - WIND CHILL INDEX
   HX - HEAT INDEX
  VSB - VISIBILITY
$$



USA.gov is the U.S. government's official web portal to all federal, state and local government web resources and services.